Regional Weather Roundup
Issued by NWS

Home | Current Version | Previous Version | Text Only | Print | Product List | Glossary Off
Versions: 1 2 3 4 5 6 7 8 9 10 11 12 13 14 15 16 17 18 19 20 21 22 23 24 25 26 27 28 29 30 31 32 33 34 35 36 37 38 39 40 41 42 43 44 45 46 47 48 49 50

000
ASUS43 KOAX 190002
RWRNE

WEATHER ROUNDUP FOR NEBRASKA
NATIONAL WEATHER SERVICE OMAHA NE
700 PM CDT THU SEP 18 2014

NOTES: SATELLITE DATA IS BEING USED TO AUGMENT CLOUD COVER ABOVE
       12000 FEET.
       "FAIR" INDICATES FEW OR NO CLOUDS BELOW 12,000 FEET WITH NO
       SIGNIFICANT WEATHER AND/OR OBSTRUCTIONS TO VISIBILITY.

  * THESE STATIONS DO NOT REPORT WEATHER SUCH AS RAIN...SNOW OR FOG.

NEZ001>004-019>022-054>056-190100-
NEBRASKA PANHANDLE

CITY           SKY/WX    TMP DP  RH WIND       PRES   REMARKS
SCOTTSBLUFF    SUNNY     87  52  29 E10       29.82F
6HR MIN TEMP:  76; 6HR MAX TEMP:  93;

ALLIANCE       PTCLDY    80  62  54 S17       29.85F
6HR MIN TEMP:  78; 6HR MAX TEMP:  88;

CHADRON        PTCLDY    88  52  29 S12       29.75F
6HR MIN TEMP:  82; 6HR MAX TEMP:  94;

KIMBALL        SUNNY     85  40  20 S14       29.91S
SIDNEY         CLEAR     84  54  35 S14       29.91S
6HR MIN TEMP:  80; 6HR MAX TEMP:  90;

$$

NEZ057>060-069>072-079>082-190100-
SOUTHWEST NEBRASKA

CITY           SKY/WX    TMP DP  RH WIND       PRES   REMARKS
NORTH PLATTE   CLOUDY    67  61  81 S8        29.90F
6HR MIN TEMP:  67; 6HR MAX TEMP:  73;

IMPERIAL       CLEAR     73  62  68 SE13      29.90F
6HR MIN TEMP:  67; 6HR MAX TEMP:  75;

LEXINGTON      CLOUDY    69  66  92 SE6       29.91F
MCCOOK         CLEAR     70  62  76 E8        29.90F
6HR MIN TEMP:  64; 6HR MAX TEMP:  71;

OGALLALA       CLEAR     71  64  76 SE9       29.90S
$$

NEZ005>010-023>029-035>040-094-190100-
NORTH CENTRAL NEBRASKA

CITY           SKY/WX    TMP DP  RH WIND       PRES   REMARKS
VALENTINE      PTCLDY    79  62  56 S16       29.82S
6HR MIN TEMP:  73; 6HR MAX TEMP:  81;

AINSWORTH      PTCLDY    74  61  64 S16G24    29.85S
BROKEN BOW     CLOUDY    70  64  81 S13       29.90F
6HR MIN TEMP:  70; 6HR MAX TEMP:  79;

O`NEILL        CLEAR     75  61  62 S13       29.88S
ORD            CLOUDY    72  64  76 S13       29.88F
6HR MIN TEMP:  72; 6HR MAX TEMP:  78;

THEDFORD       PTCLDY    71  62  74 S15G21    29.90R
$$

NEZ041-046>049-061>064-073>077-083>087-190100-
SOUTH CENTRAL NEBRASKA

CITY           SKY/WX    TMP DP  RH WIND       PRES   REMARKS
GRAND ISLAND   PTCLDY    73  65  75 SE7       29.91F
6HR MIN TEMP:  72; 6HR MAX TEMP:  79;

AURORA         CLEAR     73  64  74 SE7       29.92S
HASTINGS       CLEAR     74  62  66 SE9       29.90F
6HR MIN TEMP:  69; 6HR MAX TEMP:  75;

HEBRON         CLEAR     76  62  61 SE6       29.91F
HOLDREGE       CLEAR     71  66  82 CALM      29.90F
KEARNEY *      CLEAR     72  66  83 E5        29.91F
YORK           PTCLDY    72  66  83 SE6       29.92F
$$

NEZ011>018-030>034-042>045-190100-
NORTHEAST NEBRASKA

CITY           SKY/WX    TMP DP  RH WIND       PRES   REMARKS
NORFOLK        CLEAR     73  60  63 SE10      29.91S
6HR MIN TEMP:  71; 6HR MAX TEMP:  77;

ALBION         CLEAR     73  62  67 S9        29.90F
BLAIR          CLEAR     70  58  66 SE7       29.96S
COLUMBUS *     CLEAR     73  59  60 SE7       29.93S
FREMONT        CLEAR     73  59  60 SE9       29.94S
TEKAMAH        CLEAR     72  58  61 SE13      29.95R
6HR MIN TEMP:  72; 6HR MAX TEMP:  77;

WAYNE          CLEAR     70  61  71 SE8       29.93S
$$

NEZ050>053-065>068-078-088>093-190100-
SOUTHEAST NEBRASKA

CITY           SKY/WX    TMP DP  RH WIND       PRES   REMARKS
LINCOLN        PTCLDY    75  60  59 SE14      29.94S
6HR MIN TEMP:  74; 6HR MAX TEMP:  80;

OMAHA EPPLEY   PTCLDY    71  53  52 SE12      29.96S
6HR MIN TEMP:  71; 6HR MAX TEMP:  77;

BEATRICE       PTCLDY    71  62  75 SE13      29.95S
FALLS CITY     CLOUDY    65  60  84 SE9       29.98S
6HR MIN TEMP:  65; 6HR MAX TEMP:  71;

NEBRASKA CITY  CLEAR     68  53  58 SE7       29.98S
PLATTSMOUTH    CLEAR     69  55  61 SE7       29.97S
$$

NEZ044-045-051>053-067-190100-
OMAHA AREA

CITY           SKY/WX    TMP DP  RH WIND       PRES   REMARKS
OMAHA EPPLEY   PTCLDY    71  53  52 SE12      29.96S
6HR MIN TEMP:  71; 6HR MAX TEMP:  77;

BLAIR          CLEAR     70  58  66 SE7       29.96S
FREMONT        CLEAR     73  59  60 SE9       29.94S
MILLARD        CLEAR     71  58  62 SE9       29.95S
OFFUTT AFB     CLEAR     69  58  67 E10       29.96S
PLATTSMOUTH    CLEAR     69  55  61 SE7       29.97S
WAHOO          FAIR      71  58  62 SE9       29.94R
$$



USA.gov is the U.S. government's official web portal to all federal, state and local government web resources and services.